Dillingham Weather Center

Moon Phase Calendar



Online Cameras

 


      

Current Conditions in Dillingham
9/24/2021 4:27:23 PM

45°F
Feels Like 42
Clear
Humidity
39%
Pressure
29.8"
Wind
5.8 mph (SE)
Dew Point
23°F
UV Index
1/10 (Low)
Visibility
6 mi

Hourly Forecast

Date & Time Fri, Sep 24
4:00 PM
Fri, Sep 24
5:00 PM
Fri, Sep 24
6:00 PM
Fri, Sep 24
7:00 PM
Fri, Sep 24
8:00 PM
Fri, Sep 24
9:00 PM
Fri, Sep 24
10:00 PM
Fri, Sep 24
11:00 PM
Sat, Sep 25
12:00 AM
Sat, Sep 25
1:00 AM
Sat, Sep 25
2:00 AM
Sat, Sep 25
3:00 AM
Sat, Sep 25
4:00 AM
Sat, Sep 25
5:00 AM
Sat, Sep 25
6:00 AM
Sat, Sep 25
7:00 AM
Sat, Sep 25
8:00 AM
Sat, Sep 25
9:00 AM
Sat, Sep 25
10:00 AM
Sat, Sep 25
11:00 AM
Sat, Sep 25
12:00 PM
Sat, Sep 25
1:00 PM
Sat, Sep 25
2:00 PM
Sat, Sep 25
3:00 PM
Sat, Sep 25
4:00 PM
Sat, Sep 25
5:00 PM
Sat, Sep 25
6:00 PM
Sat, Sep 25
7:00 PM
Sat, Sep 25
8:00 PM
Sat, Sep 25
9:00 PM
Sat, Sep 25
10:00 PM
Sat, Sep 25
11:00 PM
Sun, Sep 26
12:00 AM
Sun, Sep 26
1:00 AM
Sun, Sep 26
2:00 AM
Sun, Sep 26
3:00 AM
Sun, Sep 26
4:00 AM
Sun, Sep 26
5:00 AM
Sun, Sep 26
6:00 AM
Sun, Sep 26
7:00 AM
Sun, Sep 26
8:00 AM
Sun, Sep 26
9:00 AM
Sun, Sep 26
10:00 AM
Sun, Sep 26
11:00 AM
Sun, Sep 26
12:00 PM
Sun, Sep 26
1:00 PM
Sun, Sep 26
2:00 PM
Sun, Sep 26
3:00 PM
Condition
Clear

Clear

Clear

Clear

Clear

Clear

Clear

Clear

Clear

Clear

Clear

Clear

Clear

Clear

Clear

Clear

Clear

Clear

Clear

Clear

Clear

Clear

Clear

Clear

Clear

Clear

Clear

Clear

Clear

Clear

Clear

Clear

Clear

Clear

Clear

Clear

Clear

Clear

Clear

Clear

Clear

Clouds

Clouds

Clouds

Clouds

Clouds

Clouds

Clouds
Temperature 45°F45°F45°F44°F40°F37°F37°F35°F34°F34°F34°F33°F33°F33°F33°F33°F33°F33°F36°F39°F41°F43°F44°F45°F46°F45°F45°F43°F39°F37°F36°F36°F35°F35°F35°F35°F35°F35°F36°F35°F35°F36°F39°F42°F44°F45°F47°F48°F
Feels Like 45°F45°F45°F44°F40°F37°F31°F29°F29°F29°F29°F29°F28°F28°F28°F27°F27°F27°F31°F34°F36°F37°F38°F39°F39°F39°F38°F36°F33°F30°F29°F28°F28°F27°F28°F28°F29°F30°F30°F31°F31°F32°F36°F39°F42°F43°F44°F45°F
Cloudiness 1%1%1%0%0%1%1%1%3%4%4%4%4%5%5%5%5%5%5%5%3%2%1%1%1%2%3%3%3%3%4%1%1%1%1%1%2%1%4%5%8%20%29%85%72%55%45%37%
Visibility 6 mi6 mi6 mi6 mi6 mi6 mi6 mi6 mi6 mi6 mi6 mi6 mi6 mi6 mi6 mi6 mi6 mi6 mi6 mi6 mi6 mi6 mi6 mi6 mi6 mi6 mi6 mi6 mi6 mi6 mi6 mi6 mi6 mi6 mi6 mi6 mi6 mi6 mi6 mi6 mi6 mi6 mi6 mi6 mi6 mi6 mi6 mi6 mi
Precipitation 0%0%0%0%0%0%0%0%0%0%0%0%0%0%0%0%0%0%0%0%0%0%0%0%0%0%0%0%0%0%0%0%0%0%0%0%0%0%0%0%0%0%0%0%0%0%0%0%
Humidity 39%38%38%45%48%55%54%58%58%57%58%58%59%59%58%59%59%58%54%48%42%38%36%35%36%38%41%47%53%58%60%61%60%59%58%56%53%51%50%49%49%49%45%40%37%35%34%34%
Dew Point 23°F22°F22°F25°F23°F22°F22°F21°F21°F20°F20°F20°F20°F20°F20°F20°F20°F20°F21°F21°F20°F19°F19°F19°F20°F21°F22°F24°F24°F24°F23°F23°F23°F22°F21°F20°F19°F19°F19°F18°F18°F19°F20°F19°F19°F19°F20°F21°F
Pressure 29.8"29.8"29.8"29.77"29.77"29.8"29.8"29.8"29.8"29.8"29.8"29.8"29.8"29.8"29.8"29.8"29.8"29.8"29.8"29.8"29.8"29.8"29.8"29.77"29.77"29.77"29.77"29.8"29.8"29.8"29.83"29.83"29.85"29.85"29.85"29.88"29.88"29.88"29.88"29.91"29.91"29.91"29.94"29.94"29.97"29.97"29.94"29.94"
Wind Speed 1.8 mph1.6 mph2.2 mph2.7 mph2.2 mph2.4 mph7 mph7.4 mph6 mph5.4 mph5 mph5.3 mph5.1 mph5.1 mph5.9 mph6.4 mph6.8 mph7 mph6.4 mph7.3 mph9 mph11.2 mph12.5 mph13.6 mph14.7 mph15.4 mph15.5 mph12.7 mph10.2 mph9.8 mph9.4 mph9.2 mph9.6 mph9.7 mph9.3 mph8.1 mph6.4 mph6.5 mph6.2 mph5.7 mph5.6 mph4.9 mph4.5 mph4 mph3.5 mph4.3 mph5.8 mph7.2 mph
Wind
Direction
181°
S
230°
SW
273°
W
279°
W
284°
WNW
38°
NE
65°
ENE
64°
ENE
46°
NE
35°
NE
36°
NE
35°
NE
28°
NNE
15°
NNE

N

N

N

N

N

N

N
12°
NNE
15°
NNE
21°
NNE
24°
NNE
25°
NNE
29°
NNE
27°
NNE
23°
NNE
20°
NNE
13°
NNE

N
352°
N
350°
N
347°
NNW
344°
NNW
334°
NNW
319°
NW
310°
NW
307°
NW
314°
NW
319°
NW
311°
NW
305°
NW
288°
WNW
261°
W
242°
WSW
230°
SW

Daily Forecast

Date High Low Precip. Humidity
Today
Sep 24

Clear
45 °F
32 °F
0%
40%
Saturday
Sep 25

Clear
46 °F
33 °F
0%
36%
Sunday
Sep 26

Clouds
49 °F
35 °F
0%
35%
Monday
Sep 27

Clouds
45 °F
35 °F
0%
60%
Tuesday
Sep 28

Clouds
44 °F
37 °F
17%
65%
Wednesday
Sep 29

Clouds
44 °F
35 °F
0%
58%
Thursday
Sep 30

Snow
42 °F
32 °F
100%
50%
Friday
Oct 1

Clouds
42 °F
31 °F
0%
53%
Saturday
Oct 2

Clouds
42 °F
32 °F
0%
55%
Sunday
Oct 3

Clear
41 °F
29 °F
0%
51%
Monday
Oct 4

Rain
43 °F
31 °F
26%
57%
Tuesday
Oct 5

Rain
41 °F
35 °F
100%
96%
Wednesday
Oct 6

Rain
44 °F
36 °F
100%
92%
Thursday
Oct 7

Rain
43 °F
38 °F
100%
86%
Friday
Oct 8

Rain
41 °F
38 °F
99%
97%
Saturday
Oct 9

Clouds
43 °F
38 °F
0%
79%

Temperature 8-14 Day Outlook



Precipitation 8-14 Day Outlook




Quick Links
Dillingham News
Dillingham Photos
Dillingham Videos




About Us
Contact Us
Site Map
Search Site
Advertise With Us
   
Dillingham.USCoast.info
THE DILLINGHAM WEBSITE

Copyright 2021, Coastal Town
Privacy    |    Legal